Narmada Express 18233 Schedule, Route, Map - Indore to Bilaspur train
Must See India - Best Travel Guide to India
Home   |   Login   |   Register   |   Contact Us
 

Narmada Express (18233)

Print
     

Service Days:

All Days

Classes:

AC 1st Class (1A), AC 2 Tier (2A), AC 3 Tier (3A), Sleeper (SL)

Duration:

24h 35m

Station Arrival Departure Stop Time Distance Day
1 Indore (INDB) starts 04:50 pm Starts 0 km 1
2 Mangliya Gaon (MGG) 05:06 pm 05:08 pm 2 min 15 km 1
3 Barlai (BLAX) 05:16 pm 05:18 pm 2 min 26 km 1
4 Dewas (DWX) 05:32 pm 05:34 pm 2 min 39 km 1
5 Naranjipur (NRGR) 05:42 pm 05:44 pm 2 min 49 km 1
6 Undasa Madhawpu (UDM) 05:53 pm 05:55 pm 2 min 55 km 1
7 Karchha (KDHA) 06:03 pm 06:04 pm 1 min 62 km 1
8 Vikramnagar (VRG) 06:19 pm 06:21 pm 2 min 74 km 1
9 Ujjain (UJN) 07:10 pm 07:25 pm 15 min 80 km 1
10 Tarana Road (TAN) 08:06 pm 08:07 pm 1 min 111 km 1
11 Maksi (MKC) 08:18 pm 08:20 pm 2 min 121 km 1
12 Berchha (BCH) 08:34 pm 08:36 pm 2 min 140 km 1
13 Kali Sindh (KSH) 08:47 pm 08:49 pm 2 min 152 km 1
14 Akodia (AKD) 09:05 pm 09:07 pm 2 min 170 km 1
15 Shujalpur (SJP) 09:20 pm 09:22 pm 2 min 183 km 1
16 Kalapipal (KPP) 09:34 pm 09:36 pm 2 min 195 km 1
17 Sehore (SEH) 10:01 pm 10:03 pm 2 min 224 km 1
18 Bairagarh (BIH) 10:56 pm 10:58 pm 2 min 253 km 1
19 Bhopal (BPL) 11:25 pm 11:35 pm 10 min 263 km 1
20 Habibganj (HBJ) 11:45 pm 11:47 pm 2 min 269 km 1
21 Mandi Dip (MDDP) 12:02 am 12:04 am 2 min 286 km 2
22 Obaidulla Ganj (ODG) 12:16 am 12:18 am 2 min 299 km 2
23 Hoshangabad (HBD) 01:14 am 01:16 am 2 min 337 km 2
24 Itarsi (ET) 02:10 am 02:20 am 10 min 355 km 2
25 Bagra Tawa (BGTA) 02:52 am 02:54 am 2 min 381 km 2
26 Sohagpur (SGP) 03:12 am 03:14 am 2 min 404 km 2
27 Pipariya (PPI) 03:27 am 03:29 am 2 min 422 km 2
28 Salichauka Road (SCKR) 03:54 am 03:56 am 2 min 458 km 2
29 Gadarwara (GAR) 04:07 am 04:09 am 2 min 472 km 2
30 Kareli (KY) 04:30 am 04:32 am 2 min 500 km 2
31 Narsinghpur (NU) 04:48 am 04:50 am 2 min 516 km 2
32 Shridham (SRID) 05:18 am 05:20 am 2 min 547 km 2
33 Madan Mahal (MML) 06:10 am 06:12 am 2 min 597 km 2
34 Jabalpur (JBP) 06:30 am 06:40 am 10 min 600 km 2
35 Deori (DOE) 07:02 am 07:04 am 2 min 617 km 2
36 Gosalpur (GSPR) 07:14 am 07:16 am 2 min 627 km 2
37 Sihora Road (SHR) 07:28 am 07:30 am 2 min 638 km 2
38 Dundi (DDCE) 07:42 am 07:44 am 2 min 653 km 2
39 Sleemanabad Rd (SBD) 07:52 am 07:54 am 2 min 663 km 2
40 Niwar (NWR) 08:12 am 08:14 am 2 min 677 km 2
41 Katni (KTE) 09:00 am 09:20 am 20 min 691 km 2
42 Jhalwara (JLW) 09:49 am 09:51 am 2 min 703 km 2
43 Rupaund (RPD) 10:01 am 10:03 am 2 min 715 km 2
44 Chandia Road (CHD) 10:17 am 10:19 am 2 min 732 km 2
45 Umaria (UMR) 10:40 am 10:45 am 5 min 751 km 2
46 Karkeli (KKI) 10:53 am 10:55 am 2 min 763 km 2
47 Nowrozabad (NRZB) 11:05 am 11:07 am 2 min 773 km 2
48 Birsinghpur (BRS) 11:14 am 11:16 am 2 min 781 km 2
49 Shahdol (SDL) 12:00 pm 12:10 pm 10 min 818 km 2
50 Burhar (BUH) 12:26 pm 12:28 pm 2 min 837 km 2
51 Amlai (AAL) 12:36 pm 12:38 pm 2 min 846 km 2
52 Anuppur Jn (APR) 01:05 pm 01:10 pm 5 min 859 km 2
53 Chhulha (CLF) 01:14 pm 01:16 pm 2 min 864 km 2
54 Jaithari (JTI) 01:23 pm 01:25 pm 2 min 872 km 2
55 Nigaura (NIQ) 01:33 pm 01:35 pm 2 min 883 km 2
56 Venkatnagra (VKR) 01:42 pm 01:44 pm 2 min 890 km 2
57 Harri (HRB) 01:52 pm 01:54 pm 2 min 901 km 2
58 Pendra Road (PND) 02:10 pm 02:15 pm 5 min 909 km 2
59 Khodri (KOI) 02:26 pm 02:28 pm 2 min 920 km 2
60 Bhanwar Tonk (BHTK) 02:45 pm 02:47 pm 2 min 931 km 2
61 Khongsara (KGS) 03:04 pm 03:06 pm 2 min 944 km 2
62 Tenganmada (TGQ) 03:12 pm 03:14 pm 2 min 952 km 2
63 Belgahna (BIG) 03:23 pm 03:25 pm 2 min 962 km 2
64 Kargi Road (KGB) 03:43 pm 03:45 pm 2 min 978 km 2
65 Ghutku (GTK) 04:19 pm 04:21 pm 2 min 994 km 2
66 Usalapur (USL) 04:45 pm 04:50 pm 5 min 1,001 km 2
67 Bilaspur (BSP) 05:25 pm ends Ends 1,010 km 2

 

 Click to view map

You can drag the map with your mouse, and double-click to zoom.

People who viewed this page also viewed

 
Chikmagalur packages from Hyderabad
 
Chikmagalur resorts bookings
 
Dadra honeymoon packages from Kolkata
 
Dandeli packages from Chennai
 
Kargil packages from Pune
 
Katra honeymoon packages from Mumbai
 
Pangong packages from Kolkata
 
Pondicherry tour packages from Mumbai
 
Srinagar honeymoon packages from Chennai
 
honeymoon destinations in delhi
 
honeymoon packages to jammu and kashmir from chennai
 
manali shimla tour package
 

Destinations

 
 

More

 
debug_temp: train_route : train:1133:Narmada Express:Train